Regional Weather Roundup
Issued by NWS

Home | Current Version | Previous Version | Text Only | Print | Product List | Glossary Off
Versions: 1 2 3 4 5 6 7 8 9 10 11 12 13 14 15 16 17 18 19 20 21 22 23 24 25 26 27 28 29 30 31 32 33 34 35 36 37 38 39 40 41 42 43 44 45 46 47 48 49 50

000
ASUS43 KMPX 181701
RWRMN
WEATHER ROUNDUP FOR MINNESOTA
NATIONAL WEATHER SERVICE TWIN CITIES/CHANHASSEN MN
1200 PM CDT FRI APR 18 2014


NOTE: "FAIR" INDICATES FEW OR NO CLOUDS BELOW 12,000 FEET WITH NO
SIGNIFICANT WEATHER AND/OR OBSTRUCTIONS TO VISIBILITY. N/A MEANS
CURRENT SKY AND/OR WEATHER CONDITIONS ARE NOT AVAILABLE.

MNZ060>063-068>070-181800-
   Twin Cities Metro

CITY           SKY/WX    TMP DP  RH WIND       PRES   REMARKS
TWIN CITIES    MOSUNNY   44  28  53 SE7       30.37S
ST PAUL        SUNNY     45  29  53 SE8       30.39S
CRYSTAL        MOSUNNY   42  26  53 SE7       30.36S
BLAINE         MOSUNNY   43  28  56 SE8       30.37S
EDEN PRAIRIE   PTSUNNY   46  29  51 E12       30.35F
LAKEVILLE      MOSUNNY   45  30  57 SE9       30.36S
SOUTH ST PAUL  SUNNY     46  30  54 SE6       30.37S
LAKE ELMO      PTSUNNY   45  30  57 E7        30.39R
$$
MNZ001>005-007-008-013>017-022>024-027-028-181800-
   Northwest Minnesota

CITY           SKY/WX    TMP DP  RH WIND       PRES   REMARKS
BEMIDJI        MOSUNNY   43  20  40 SE14G22   30.29F
HALLOCK        CLOUDY    45  18  33 SE16      30.25F
ROSEAU         SUNNY     45  16  31 SE13      30.31S
WARROAD        SUNNY     37  25  60 NE8       30.33S
THIEF RVR FALL SUNNY     43  19  39 SE16G22   30.27F
CROOKSTON      MOSUNNY   46  21  36 SE17      30.26F
FOSSTON        MOSUNNY   45  23  42 SE13G20   30.27F
DETROIT LAKES  MOSUNNY   41  23  48 SE17G23   30.26F
MOORHEAD       MOSUNNY   43  27  52 SE13      30.24F
PARK RAPIDS    PTSUNNY   42  19  39 SE15      30.29F
$$
MNZ006-009>011-018-025>026-181800-
   North Central Minnesota

CITY           SKY/WX    TMP DP  RH WIND       PRES   REMARKS
BAUDETTE       SUNNY     42  19  39 SE8       30.34R
FLAG ISLAND    SUNNY     37  19  48 SE7       30.34S
INTL FALLS     SUNNY     39  12  33 E12       30.37R
WASKISH        SUNNY     46  18  31 SE12      30.32F
BIG FORK       SUNNY     45  16  31 S6        30.35S
LONGVILLE      MOSUNNY   45  19  36 SE8       30.32F
GRAND RAPIDS   SUNNY     41  16  36 SE7       30.35S
CRANE LAKE     SUNNY     43  16  33 E7        30.40F
ORR            SUNNY     39  12  33 SE7       30.35F
COOK           SUNNY     37  10  32 NE6       30.38S
$$
MNZ012-019>021-037-181800-
   Northeast Minnesota

CITY           SKY/WX    TMP DP  RH WIND       PRES   REMARKS
DULUTH         SUNNY     36  18  48 E9        30.37S
ELY            SUNNY     36  18  48 NE5       30.37F
HIBBING        SUNNY     41  14  33 VRB5      30.36F
EVELETH        SUNNY     39  12  33 E7        30.38S
DULUTH HARBOR  SUNNY     34  27  75 CALM      30.43S
TWO HARBORS    SUNNY     36  21  55 S6        30.39R
SILVER BAY     SUNNY     37  27  65 SE6       30.38S
GRAND MARAIS     N/A     34  27  75 SW7       30.42R WCI  28
G MARAIS ARPRT MOSUNNY   34  19  55 NW5       30.37R WCI  30
$$
MNZ029>031-032-039>041-046>048-054>057-064-181800-
   West Central Minnesota

CITY           SKY/WX    TMP DP  RH WIND       PRES   REMARKS
FERGUS FALLS   PTSUNNY   43  19  39 SE20G26   30.23F
WHEATON        PTSUNNY   45  32  61 SE26      30.24F
MORRIS         PTSUNNY   41  32  70 SE23      30.24F
ALEXANDRIA     CLOUDY    39  28  64 SE16G22   30.29F
ELBOW LAKE     FAIR      41  25  52 SE18G25   30.25F
WADENA         PTSUNNY   41  23  48 SE16      30.29S
GLENWOOD       PTSUNNY   39  27  60 SE16      30.29F
APPLETON       PTSUNNY   41  30  65 SE20G25   30.25F
BENSON         PTSUNNY   39  30  70 SE20      30.28F
ORTONVILLE     CLOUDY    37  30  75 SE15G22   30.22F
MADISON        CLOUDY    43  36  75 SE21      30.23F
WILLMAR        FAIR      39  30  70 SE16      30.31F
$$
MNZ033>034-036-042>043-049>051-058-059-181800-
   Central Minnesota

CITY           SKY/WX    TMP DP  RH WIND       PRES   REMARKS
ST CLOUD       CLOUDY    39  26  59 SE12      30.35S
SAUK CENTRE    PTSUNNY   40  28  63 SE14G20   30.32S
PAYNESVILLE    PTSUNNY   39  28  63 SE13      30.33F
AITKIN         MOSUNNY   45  21  39 SE9       30.33S
PINE RIVER     MOSUNNY   45  25  45 SE10      30.34F
BRAINERD       CLOUDY    46  23  40 VRB7      30.34S
STAPLES        PTSUNNY   41  21  45 SE13      30.31F
LONG PRAIRIE   FAIR      37  27  65 SE12G17   30.31F
LITTLE FALLS   MOSUNNY   37  27  65 SE8       30.34F
LITCHFIELD     MOSUNNY   39  32  75 SE10      30.33F
BUFFALO        MOSUNNY   42  28  57 E7        30.36F
MAPLE LAKE     MOSUNNY   43  29  58 SE8       30.36F
$$
MNZ037-044-045-052-053-181800-
   East Central Minnesota

CITY           SKY/WX    TMP DP  RH WIND       PRES   REMARKS
PRINCETON      MOSUNNY   43  27  52 E7        30.37S
MORA           PTSUNNY   39  23  52 E7        30.39S
CAMBRIDGE      MOSUNNY   43  27  52 E7        30.36S
RUSH CITY      CLOUDY    41  25  51 CALM      30.38S
MOOSE LAKE     SUNNY     43  19  39 CALM      30.35F
HINCKLEY       PTSUNNY   43  27  52 E7        30.37F
CLOQUET        SUNNY     37  12  35 E6        30.37S
MCGREGOR       SUNNY     43  19  39 E6        30.36S
$$
MNZ071>073-080-081-089-090-097-098-181800-
   Southwest Minnesota

CITY           SKY/WX    TMP DP  RH WIND       PRES   REMARKS
MONTEVIDEO     CLOUDY    37  32  81 S18       30.28F
GRANITE FALLS  CLOUDY    38  32  79 E14       30.29F
CANBY          CLOUDY    38  34  84 SE16      30.23F
MARSHALL       CLOUDY    45  32  61 SE21      30.23F
REDWOOD FALLS  CLOUDY    42  32  67 SE20G25   30.29F
OLIVIA         PTSUNNY   39  32  75 SE12      30.30F
PIPESTONE      MOSUNNY   50  36  57 S20G25    30.18F
WINDOM         CLOUDY    46  34  61 SE16      30.28F
WORTHINGTON    CLOUDY    48  30  49 SE17      30.26F
JACKSON        CLOUDY    46  32  57 SE16      30.28F
TRACY          CLOUDY    46  37  69 SE17      30.26S
SLAYTON        CLOUDY    46  37  71 SE20      30.23F
$$
MNZ065>067-074>077-082>085-091>093-181800-
   South Central Minnesota

CITY           SKY/WX    TMP DP  RH WIND       PRES   REMARKS
MANKATO        PTSUNNY   45  30  57 SE15      30.35F
NEW ULM        CLOUDY    43  32  65 SE13      30.32F
ST JAMES       CLOUDY    45  34  65 SE13      30.32F
FAIRMONT       CLOUDY    43  30  61 SE13      30.33F
GLENCOE        CLOUDY    46  31  55 SE10      30.34S
FARIBAULT      MOSUNNY   46  28  49 SE12      30.36S
OWATONNA       MOSUNNY   45  32  61 SE9       30.36R
WASECA         MOSUNNY   45  34  65 E9        30.37S
ALBERT LEA     MOSUNNY   46  30  53 SE12      30.34S
$$
MNZ078>079-086>088-094>096-181800-
   Southeast Minnesota

CITY           SKY/WX    TMP DP  RH WIND       PRES   REMARKS
ROCHESTER      SUNNY     44  28  53 SE9       30.35F
RED WING       SUNNY     46  28  49 SE8       30.37S
STANTON        MOSUNNY   45  30  55 E9        30.36S
DODGE CENTER   MOSUNNY   46  30  53 S9        30.35R
WINONA         MOSUNNY   46  30  53 E5        30.39S
AUSTIN         SUNNY     45  32  61 SE9       30.34S
PRESTON        SUNNY     45  24  42 E9        30.35F
$$
ABBREVIATIONS USED IN REMARKS
   TC - TEMPERATURES IN CELSIUS
  WCI - WIND CHILL INDEX
   HX - HEAT INDEX
  VSB - VISIBILITY
$$



USA.gov is the U.S. government's official web portal to all federal, state and local government web resources and services.